EZY61LP EGCC-LGKR

Flight info

Callsign EZY61LP
Flight time N/A
Altitude 35000
Route SONEX L975 DESIG L603 DOLAS DCT NAVPI DCT DODEN DCT NEGIX DCT DINKU M867 XERUM/N0440F370 DCT BAVAX DCT RADIZ DCT MODRO DCT DARZA DCT DEPET DCT UNIPA DCT VAKSU DCT RODON DCT LIMJA N732 PITAS
Aircraft A320/M-SDE3FGHIRWY/LB1

Departure

Time N/A
Airport Manchester Airport (EGCC)

Arrival

Time 2026-04-27 18:03
Airport Corfu Ioannis Kapodistrias International Airport (LGKR)
Time Latitude Longitude Altitude Speed Heading
2026-04-27 17:37 40.90810 19.36726 35121 ft 454 kts 164°
2026-04-27 17:37 40.87848 19.38147 34661 ft 450 kts 164°
2026-04-27 17:37 40.84919 19.39554 34200 ft 446 kts 164°
2026-04-27 17:38 40.82012 19.40950 33693 ft 442 kts 164°
2026-04-27 17:38 40.79169 19.42313 33188 ft 439 kts 164°
2026-04-27 17:38 40.76274 19.43700 32672 ft 435 kts 164°
2026-04-27 17:38 40.73474 19.45043 32167 ft 432 kts 163°
2026-04-27 17:39 40.70627 19.46411 31677 ft 429 kts 163°
2026-04-27 17:39 40.67834 19.47753 31217 ft 425 kts 163°
2026-04-27 17:39 40.65101 19.49059 30758 ft 422 kts 163°
2026-04-27 17:39 40.62352 19.50367 30294 ft 419 kts 163°
2026-04-27 17:40 40.59620 19.51666 29799 ft 415 kts 163°
2026-04-27 17:40 40.56914 19.52953 29271 ft 412 kts 163°
2026-04-27 17:40 40.54223 19.54231 28754 ft 409 kts 163°
2026-04-27 17:40 40.51555 19.55500 28245 ft 406 kts 163°
2026-04-27 17:41 40.48909 19.56759 27746 ft 403 kts 163°
2026-04-27 17:41 40.46281 19.58006 27272 ft 400 kts 163°
2026-04-27 17:41 40.43671 19.59243 26800 ft 397 kts 162°
2026-04-27 17:41 40.41079 19.60467 26332 ft 395 kts 162°
2026-04-27 17:42 40.38498 19.61685 25875 ft 392 kts 162°
2026-04-27 17:42 40.35938 19.62895 25424 ft 390 kts 162°
2026-04-27 17:42 40.33394 19.64095 24978 ft 388 kts 162°
2026-04-27 17:42 40.30865 19.65288 24542 ft 385 kts 162°
2026-04-27 17:43 40.28352 19.66473 24112 ft 383 kts 162°
2026-04-27 17:43 40.25851 19.67651 23673 ft 381 kts 162°
2026-04-27 17:43 40.23364 19.68824 23196 ft 378 kts 162°
2026-04-27 17:43 40.20895 19.69989 22746 ft 375 kts 162°
2026-04-27 17:44 40.18449 19.71140 22322 ft 373 kts 162°
2026-04-27 17:44 40.16019 19.72278 21904 ft 369 kts 162°
2026-04-27 17:44 40.13608 19.73405 21482 ft 367 kts 162°
2026-04-27 17:44 40.11214 19.74527 21070 ft 364 kts 161°
2026-04-27 17:45 40.08840 19.75641 20679 ft 362 kts 161°
2026-04-27 17:45 40.06479 19.76745 20285 ft 359 kts 161°
2026-04-27 17:45 40.04139 19.77839 19887 ft 356 kts 161°
2026-04-27 17:45 40.01810 19.78927 19497 ft 355 kts 161°
2026-04-27 17:46 39.99495 19.80010 19124 ft 352 kts 162°
2026-04-27 17:46 39.97198 19.81086 18776 ft 349 kts 161°
2026-04-27 17:46 39.94917 19.82151 18421 ft 347 kts 161°
2026-04-27 17:46 39.92652 19.83206 18011 ft 344 kts 161°
2026-04-27 17:47 39.90432 19.84238 17622 ft 342 kts 161°
2026-04-27 17:47 39.88925 19.84948 17392 ft 340 kts 161°
2026-04-27 17:47 39.86005 19.86393 16878 ft 337 kts 160°
2026-04-27 17:47 39.83769 19.87196 16515 ft 332 kts 177°
2026-04-27 17:48 39.81505 19.86948 16159 ft 324 kts 199°
2026-04-27 17:48 39.79519 19.85663 15811 ft 317 kts 220°
2026-04-27 17:48 39.78048 19.83579 15461 ft 312 kts 240°
2026-04-27 17:48 39.76922 19.81171 15097 ft 311 kts 238°
2026-04-27 17:49 39.75660 19.78887 14736 ft 311 kts 234°
2026-04-27 17:49 39.74320 19.76680 14392 ft 311 kts 232°
2026-04-27 17:49 39.72925 19.74534 14064 ft 310 kts 230°
2026-04-27 17:49 39.71464 19.72481 13726 ft 309 kts 226°
2026-04-27 17:50 39.69919 19.70547 13360 ft 307 kts 223°
2026-04-27 17:50 39.66606 19.67077 12647 ft 305 kts 216°
2026-04-27 17:50 39.64851 19.65543 12296 ft 303 kts 212°
2026-04-27 17:51 39.63048 19.64143 11960 ft 301 kts 209°
2026-04-27 17:51 39.61209 19.62879 11630 ft 298 kts 206°
2026-04-27 17:51 39.59335 19.61758 11291 ft 296 kts 202°
2026-04-27 17:51 39.57416 19.60783 10955 ft 294 kts 199°
2026-04-27 17:52 39.55499 19.59955 10710 ft 289 kts 196°
2026-04-27 17:52 39.53576 19.59257 10332 ft 284 kts 193°
2026-04-27 17:52 39.51680 19.58704 9722 ft 281 kts 190°
2026-04-27 17:52 39.49745 19.58282 9251 ft 281 kts 187°
2026-04-27 17:53 39.47808 19.57992 8891 ft 279 kts 184°
2026-04-27 17:53 39.45880 19.57827 8517 ft 277 kts 181°
2026-04-27 17:53 39.43980 19.58109 8128 ft 275 kts 162°
2026-04-27 17:53 39.42306 19.59270 7756 ft 274 kts 140°
2026-04-27 17:54 39.41092 19.61148 7357 ft 274 kts 118°
2026-04-27 17:54 39.40497 19.63483 6979 ft 275 kts 98°
2026-04-27 17:54 39.40304 19.65939 6574 ft 275 kts 97°
2026-04-27 17:54 39.40117 19.68391 6177 ft 274 kts 97°
2026-04-27 17:55 39.39928 19.70839 5746 ft 273 kts 97°
2026-04-27 17:55 39.39745 19.73277 5318 ft 273 kts 93°
2026-04-27 17:55 39.39764 19.75725 4898 ft 272 kts 89°
2026-04-27 17:55 39.39798 19.78171 4458 ft 273 kts 89°
2026-04-27 17:56 39.39829 19.80625 4030 ft 272 kts 90°
2026-04-27 17:56 39.39859 19.83015 3892 ft 259 kts 90°
2026-04-27 17:56 39.39887 19.85299 3766 ft 248 kts 90°
2026-04-27 17:56 39.39963 19.87471 3643 ft 238 kts 82°
2026-04-27 17:57 39.40367 19.89501 3472 ft 230 kts 74°
2026-04-27 17:57 39.40821 19.91475 3232 ft 227 kts 74°
2026-04-27 17:57 39.41261 19.93400 3101 ft 219 kts 75°
2026-04-27 17:57 39.41690 19.95254 2996 ft 211 kts 71°
2026-04-27 17:58 39.42504 19.96725 2916 ft 197 kts 33°
2026-04-27 17:58 39.43727 19.97188 2901 ft 175 kts 355°
2026-04-27 17:58 39.44861 19.96851 2904 ft 163 kts 343°
2026-04-27 17:58 39.45931 19.96453 2767 ft 156 kts 343°
2026-04-27 17:59 39.46941 19.96077 2544 ft 151 kts 343°
2026-04-27 17:59 39.47936 19.95705 2333 ft 148 kts 344°
2026-04-27 17:59 39.48919 19.95337 2119 ft 146 kts 344°
2026-04-27 17:59 39.49896 19.94972 1924 ft 146 kts 345°
2026-04-27 18:00 39.50849 19.94540 1710 ft 145 kts 335°
2026-04-27 18:00 39.51730 19.93921 1506 ft 144 kts 330°
2026-04-27 18:00 39.52614 19.93328 1327 ft 142 kts 336°
2026-04-27 18:00 39.53557 19.92952 1152 ft 142 kts 348°
2026-04-27 18:01 39.54521 19.92712 988 ft 141 kts 348°
2026-04-27 18:01 39.55264 19.92533 827 ft 141 kts 347°
2026-04-27 18:01 39.56061 19.92318 670 ft 141 kts 345°
2026-04-27 18:01 39.57017 19.92018 467 ft 141 kts 347°
2026-04-27 18:02 39.57983 19.91785 286 ft 142 kts 348°
2026-04-27 18:02 39.58952 19.91536 99 ft 142 kts 347°
2026-04-27 18:02 39.59893 19.91291 15 ft 124 kts 347°
2026-04-27 18:02 39.60492 19.91136 9 ft 71 kts 349°
2026-04-27 18:03 39.60830 19.91050 10 ft 37 kts 349°
2026-04-27 18:03 39.60999 19.91013 8 ft 17 kts 10°
2026-04-27 18:03 39.61049 19.91107 9 ft 12 kts 120°
2026-04-27 18:03 39.60980 19.91144 9 ft 11 kts 165°
2026-04-27 18:04 39.60911 19.91162 8 ft 10 kts 170°
2026-04-27 18:04 39.60844 19.91177 7 ft 10 kts 170°
2026-04-27 18:04 39.60777 19.91195 6 ft 9 kts 166°
2026-04-27 18:04 39.60719 19.91214 6 ft 8 kts 166°
2026-04-27 18:05 39.60677 19.91227 9 ft 5 kts 166°
2026-04-27 18:05 39.60655 19.91240 8 ft 3 kts 141°
2026-04-27 18:05 39.60651 19.91279 7 ft 5 kts 76°
2026-04-27 18:05 39.60660 19.91323 7 ft 5 kts 76°
2026-04-27 18:06 39.60665 19.91354 7 ft 3 kts 77°
2026-04-27 18:06 39.60667 19.91361 7 ft 0 kts 77°
2026-04-27 18:06 39.60667 19.91363 7 ft 0 kts 77°